Theta_e
328 322 318 317 319 319 319 323 326 328 325 320 317 316 320 323 319 320 323 321 322 323 321 323 322 321 321 321 321 321 319 322 324 323 324 326 328 328 327 328 328 328 327 327 326 326 327 326 325 324 324 323 322 322 322 322 321 321 320 320 320 319 320
327 322 321 320 319 320 321 320 322 326 325 321 317 316 318 322 320 320 322 322 322 321 321 322 322 322 323 322 322 321 319 321 322 322 323 324 326 327 327 328 328 327 327 327 326 325 326 326 325 324 323 322 321 320 320 319 319 319 319 319 317 317 316
327 326 328 325 319 320 324 322 318 320 323 321 317 316 316 317 318 319 321 322 323 321 321 322 321 322 323 321 322 322 321 320 319 320 321 322 324 326 327 327 327 326 327 327 326 325 325 325 325 324 323 321 319 318 316 315 316 316 316 315 314 313 312
328 326 328 326 320 321 325 323 318 318 322 319 315 315 314 311 314 319 321 322 323 322 321 322 322 321 321 321 321 321 321 319 318 319 321 322 323 325 326 326 326 326 326 326 325 325 325 326 325 324 323 321 318 315 314 313 313 313 312 312 311 310 309
329 325 324 325 324 325 325 323 319 320 323 320 317 317 313 312 316 319 321 322 322 321 321 322 322 321 320 321 321 320 321 320 318 319 322 322 321 323 325 325 325 325 326 325 324 324 324 324 324 324 322 319 317 315 313 313 312 312 310 310 309 309 309
328 327 326 325 327 328 327 326 321 321 325 323 320 318 312 316 321 319 320 321 320 321 321 321 322 321 320 319 319 319 320 320 319 320 323 321 321 322 323 324 324 323 325 325 323 323 323 322 322 323 322 319 318 316 314 314 312 311 310 309 309 309 309
324 325 328 328 328 326 324 326 324 323 324 322 321 316 309 315 320 318 319 320 319 321 320 320 320 320 319 318 318 319 319 319 320 320 321 321 321 321 322 323 322 321 323 324 323 322 322 323 324 323 322 320 319 317 316 315 313 311 310 309 309 308 308
325 324 326 327 329 325 321 323 325 322 320 320 319 313 308 315 319 317 319 320 319 320 319 319 318 318 319 318 317 319 318 318 319 319 320 321 321 320 321 321 320 321 322 322 322 322 320 321 322 322 322 321 319 317 316 315 314 312 310 309 308 308 308
327 327 325 325 327 325 321 322 324 321 317 315 315 311 309 315 319 318 320 320 319 319 318 317 317 317 317 317 317 318 318 318 318 318 319 320 320 320 321 321 320 321 321 321 321 321 320 319 320 322 322 321 319 318 317 316 314 312 311 310 309 308 308
326 325 325 326 326 323 320 322 325 323 318 314 313 311 310 312 315 318 320 320 318 318 317 317 317 317 316 317 317 318 318 318 318 318 318 319 320 320 321 321 320 321 321 320 320 320 320 318 319 321 322 321 320 319 318 317 315 314 312 311 309 309 308
325 322 322 327 328 324 318 320 324 323 317 313 313 312 310 311 314 317 319 320 318 317 317 317 317 316 316 317 318 318 318 317 318 319 318 318 318 319 320 319 319 320 320 320 320 320 320 318 318 320 320 321 320 320 319 318 316 314 313 312 310 310 308
327 324 321 325 328 325 319 318 322 321 316 314 313 312 311 311 314 317 319 320 319 317 317 317 316 315 315 316 316 318 319 317 318 319 318 316 315 317 319 317 319 320 319 319 319 318 320 319 318 319 320 320 319 319 320 319 317 316 314 313 311 310 308
328 327 325 326 328 326 323 322 323 322 317 314 313 312 311 311 315 319 320 320 319 318 318 318 316 315 315 315 315 318 319 317 317 318 318 317 314 315 319 318 318 317 316 319 319 317 318 319 319 319 319 319 318 319 320 319 318 316 314 313 312 310 308
330 330 328 327 328 326 326 327 327 324 320 315 314 314 312 313 318 321 321 320 319 319 318 319 317 314 316 318 315 315 315 315 316 318 318 318 316 315 317 318 318 316 314 316 317 317 317 318 318 319 319 319 318 319 320 319 318 316 314 313 311 310 308
330 329 328 327 327 327 326 327 328 326 322 318 316 315 314 315 319 321 322 320 320 320 318 319 319 314 313 316 315 313 309 307 313 316 316 317 317 315 314 315 317 315 311 311 313 316 317 318 319 318 319 320 319 319 320 319 318 316 314 312 311 309 308
327 326 326 327 328 327 326 326 327 327 324 320 317 315 315 316 317 319 321 320 320 320 319 318 317 313 311 312 313 314 309 303 305 309 312 316 317 315 314 315 315 312 308 309 313 315 316 317 319 318 319 320 319 319 320 319 317 315 313 312 311 309 309
324 323 324 327 328 328 326 326 326 326 323 320 317 314 314 316 316 316 319 321 320 319 319 318 315 313 311 308 308 309 308 304 300 303 311 315 314 314 315 315 314 311 309 312 316 316 315 316 318 319 319 318 319 319 319 318 317 315 313 312 310 310 309
324 322 321 324 327 327 327 326 325 323 320 318 318 317 315 315 314 314 318 320 320 320 318 317 316 314 311 306 302 303 303 302 302 304 307 310 310 311 313 313 312 312 312 315 318 318 316 316 318 318 318 318 318 318 318 318 315 314 314 311 310 311 310
325 324 322 322 325 326 327 327 325 322 318 317 320 321 318 314 312 314 318 319 319 320 318 316 316 315 312 307 302 301 301 300 303 305 304 307 309 309 310 311 310 309 312 316 317 316 316 318 318 316 317 318 317 316 317 317 315 314 314 312 311 311 310
325 325 324 323 323 324 325 327 326 322 318 319 323 323 320 316 311 314 319 320 318 319 319 317 315 313 311 308 303 301 301 300 302 302 303 307 309 307 309 310 306 304 308 312 314 312 313 318 318 316 316 317 316 315 315 315 314 314 313 312 312 311 311
325 325 325 324 323 322 323 325 327 323 320 322 325 325 322 319 314 312 317 320 319 318 318 317 315 313 310 308 305 301 301 301 301 301 302 305 306 307 308 306 302 302 303 307 312 311 312 316 318 317 316 316 315 314 314 314 314 313 313 313 312 311 311
325 324 324 325 324 323 322 323 325 324 323 324 325 325 324 322 319 314 314 318 319 318 318 317 314 312 310 308 305 301 301 302 303 304 304 303 305 307 306 302 300 301 299 302 307 309 311 314 316 316 316 315 315 314 314 314 313 313 313 313 313 312 311
323 324 324 324 324 324 323 322 322 322 323 324 324 324 324 322 322 319 314 317 319 318 317 316 312 309 308 306 304 303 303 303 304 307 307 305 305 305 302 299 299 299 298 299 301 305 310 313 313 314 315 314 314 313 313 313 313 314 313 312 313 312 312
322 322 323 323 323 323 322 322 321 320 322 323 323 324 323 322 322 321 317 317 319 318 316 314 308 306 306 305 303 303 302 302 304 305 305 304 304 303 300 298 298 298 298 298 297 300 306 310 312 313 312 312 312 312 312 312 313 314 313 313 313 313 312
319 319 321 323 322 321 322 322 322 321 321 321 322 323 323 322 322 321 319 317 318 318 315 311 307 305 304 303 302 301 301 302 302 303 305 306 306 306 303 300 299 298 298 298 297 298 301 305 309 310 310 310 310 310 311 312 313 313 312 312 313 312 312
318 317 318 320 322 322 322 321 322 323 322 321 320 321 322 322 322 321 319 317 317 317 315 311 308 305 303 303 301 300 301 302 301 303 306 307 307 308 305 301 299 299 298 297 297 297 297 300 302 304 304 304 305 307 309 311 312 312 312 312 311 310 311
318 317 316 316 318 319 321 322 322 322 323 321 320 321 321 320 321 322 320 317 316 317 315 310 308 305 303 303 302 300 301 303 303 303 305 306 307 307 304 301 299 298 297 297 297 297 297 297 298 299 299 299 299 301 304 309 311 311 311 311 310 309 311
317 317 316 316 316 316 318 321 322 323 323 321 320 320 320 320 320 321 321 318 316 316 314 311 309 306 303 302 302 300 301 302 303 304 304 304 304 303 302 301 300 299 298 297 297 297 297 297 297 297 297 297 297 296 298 302 307 308 309 310 309 309 310
316 315 315 316 318 317 317 318 319 322 323 323 322 322 321 321 321 321 321 319 317 316 314 311 310 307 304 302 302 300 300 301 302 303 302 301 300 299 299 299 299 298 298 297 297 297 296 296 297 297 296 296 296 296 295 297 300 301 304 306 308 309 309
313 312 313 316 319 320 319 317 317 319 322 323 323 322 321 321 321 321 321 320 318 316 313 311 310 309 305 303 302 301 300 300 301 302 302 300 299 298 298 297 297 298 298 297 297 296 296 296 296 297 297 296 296 296 295 296 296 296 297 299 301 304 307
312 310 311 314 317 317 316 315 316 318 320 321 322 322 321 320 321 321 322 321 320 318 315 312 311 310 307 303 302 302 300 300 302 304 304 301 299 298 298 298 297 298 298 297 297 297 296 296 296 298 298 296 296 296 295 295 295 295 295 295 295 298 300
313 311 311 312 312 312 311 311 312 314 316 318 320 322 322 321 321 322 322 321 322 321 318 315 312 311 310 305 303 302 300 301 304 307 306 304 301 300 299 298 298 298 298 297 296 297 296 296 296 298 298 298 299 297 295 295 295 295 295 295 294 295 295
312 312 313 313 311 311 311 311 311 312 313 314 315 318 321 322 321 321 322 322 322 322 321 319 316 313 312 308 304 302 300 302 307 309 308 307 304 302 301 299 298 297 297 297 296 296 296 296 296 296 297 301 303 301 297 295 295 295 295 295 295 295 295
311 312 312 312 312 312 313 313 313 313 313 312 311 312 317 321 322 322 322 322 322 321 321 320 318 316 315 311 307 303 300 302 308 311 310 309 307 305 303 302 300 298 297 297 297 296 296 296 296 295 297 302 304 302 298 296 295 295 295 295 295 294 294
310 311 311 311 311 311 313 313 313 314 315 314 313 312 314 317 320 321 322 322 322 321 321 320 320 318 317 315 311 306 301 301 306 311 311 310 309 308 306 305 304 301 298 296 297 297 296 296 296 296 296 299 302 301 298 295 294 296 296 296 297 297 298
309 310 310 310 310 310 312 311 312 314 314 314 314 315 314 314 316 319 321 322 322 321 320 320 320 319 318 317 315 311 305 301 304 310 312 311 310 309 308 308 307 304 300 297 296 297 296 296 296 296 295 296 298 298 296 295 297 300 301 301 301 301 301
309 309 309 309 309 310 311 311 311 312 313 313 314 315 315 314 315 317 319 320 321 321 321 320 320 320 319 318 318 316 310 303 302 307 311 311 311 310 309 309 309 307 303 299 297 296 297 296 296 295 295 295 296 297 295 296 300 302 303 303 303 302 302
Wind_Speed
8 7 5 3 1 1 3 3 1 5 9 8 7 3 2 4 6 3 3 5 2 1 3 6 7 7 7 8 9 9 7 7 9 8 7 8 9 9 8 7 7 5 3 3 2 3 5 7 6 5 5 5 7 9 7 6 8 9 8 6 4 2 2
9 6 3 2 1 1 1 1 2 3 6 7 7 5 2 2 2 2 2 6 5 2 1 4 5 6 7 7 9 11 9 6 7 7 6 7 8 9 10 8 8 7 5 5 4 0 4 6 7 6 5 6 8 10 9 7 7 7 7 6 2 3 4
8 6 5 6 5 3 2 3 2 1 3 6 6 5 5 4 2 1 1 3 5 3 1 3 3 4 5 5 6 9 10 8 6 5 6 7 7 7 9 9 8 8 6 5 6 3 1 4 6 8 8 8 9 10 9 8 7 8 7 5 2 3 6
9 9 10 10 6 4 4 4 4 2 3 6 7 6 7 6 3 1 2 2 4 4 2 2 6 5 3 5 5 6 8 10 7 6 8 8 7 6 6 8 8 8 7 6 6 5 2 4 6 9 10 9 9 9 8 8 7 7 6 4 2 3 6
11 11 12 10 8 6 6 5 5 2 3 6 6 6 8 7 3 1 2 3 5 2 2 2 5 4 3 3 3 4 7 9 6 7 9 9 7 6 5 6 7 6 6 7 6 4 1 2 5 10 12 11 10 9 9 9 9 6 6 7 7 7 7
14 13 11 11 10 10 9 9 7 4 4 7 6 6 7 5 4 3 1 3 2 2 2 3 3 3 5 4 1 4 6 6 6 6 7 9 8 7 5 4 5 5 5 6 7 4 0 2 5 12 14 11 8 9 10 9 8 8 7 8 7 5 5
15 15 13 12 12 12 12 12 10 7 7 8 7 6 5 2 3 3 1 1 0 1 3 5 3 2 6 6 1 3 6 3 3 3 4 7 8 6 5 4 4 5 5 6 7 5 1 2 5 11 12 10 7 8 9 7 7 8 8 6 4 2 3
16 16 15 14 14 15 13 12 12 10 9 8 7 6 4 1 3 3 1 1 1 3 2 4 4 0 5 8 2 2 5 2 3 3 1 4 7 6 7 8 6 5 5 5 5 4 1 2 4 8 9 10 11 9 8 8 9 9 8 6 3 2 4
17 16 16 15 17 17 15 14 13 12 10 9 7 6 3 2 3 2 1 2 2 2 2 3 3 2 6 8 3 1 3 1 2 5 2 1 4 5 6 8 6 5 4 3 4 4 2 1 4 7 8 9 12 11 10 9 8 8 6 5 4 3 3
19 18 17 17 18 18 17 15 15 14 11 8 7 5 2 2 3 1 3 4 3 2 3 2 2 4 7 4 2 2 3 1 1 5 3 2 2 3 3 5 5 4 4 4 4 4 3 2 2 6 9 8 10 13 12 10 8 7 6 5 5 5 2
20 20 19 19 19 20 19 17 17 16 12 9 7 6 3 2 2 2 5 5 3 2 3 4 5 8 6 2 1 2 4 1 3 3 4 0 2 3 2 4 4 3 2 4 5 3 3 1 1 4 8 7 8 12 12 11 11 9 7 6 5 5 1
22 22 21 21 21 21 19 18 18 17 14 10 8 6 4 2 2 3 5 5 3 2 3 5 7 7 5 4 4 2 4 3 3 1 5 4 2 3 1 3 3 3 2 5 4 3 2 0 2 3 7 7 8 9 9 11 12 8 7 8 6 3 3
23 23 22 22 22 21 19 17 17 17 15 11 8 7 5 2 3 4 5 5 4 3 5 6 8 6 4 4 3 6 4 4 3 1 4 6 3 3 3 3 5 6 1 5 2 2 3 2 2 2 5 6 7 8 8 10 9 7 8 8 4 5 6
25 24 23 22 22 22 19 17 17 17 16 12 8 7 5 4 5 5 6 6 4 5 5 6 8 6 2 4 4 5 6 5 4 3 5 5 4 1 4 3 3 7 4 4 5 3 2 4 3 2 3 5 6 8 9 10 8 9 9 6 5 8 6
25 25 24 23 23 22 19 18 18 18 17 13 10 7 6 5 6 8 7 6 5 6 5 5 10 7 2 5 5 4 5 4 5 5 5 3 2 4 2 5 3 6 4 3 4 6 3 2 3 4 2 4 5 8 9 10 9 8 8 8 9 9 5
25 25 25 23 23 22 19 18 19 19 17 14 11 9 7 7 8 8 8 7 7 7 5 7 11 8 3 5 4 3 5 4 4 4 2 2 0 3 1 2 3 5 2 1 2 2 5 6 2 5 2 1 4 7 7 9 7 4 8 12 9 6 7
23 24 25 24 22 21 19 19 20 19 18 15 12 11 9 9 8 7 8 8 8 7 7 8 10 7 4 5 5 5 5 4 3 3 4 4 5 3 2 2 2 2 1 2 2 1 3 7 3 3 2 1 4 6 5 7 4 3 9 11 7 6 7
21 22 22 23 23 21 18 19 21 20 18 15 13 12 11 10 9 7 8 8 8 8 8 7 7 6 6 6 4 4 5 4 2 3 4 5 5 5 4 3 3 2 3 3 3 3 4 5 3 3 2 1 5 4 4 7 2 1 9 9 6 8 6
20 20 19 20 23 22 20 21 22 20 18 15 13 13 12 11 9 8 7 7 7 8 8 7 6 6 6 7 5 3 5 3 2 3 3 3 3 4 3 3 4 5 5 6 6 7 8 8 5 5 5 4 3 3 6 7 2 2 9 7 8 9 7
18 19 19 19 20 21 20 21 21 19 17 15 14 14 14 12 9 7 8 7 6 7 9 9 8 7 7 7 7 4 4 3 3 4 3 3 4 3 4 5 7 7 7 8 8 7 10 12 9 7 7 7 6 7 9 8 4 6 8 7 8 8 7
16 17 18 18 16 16 19 21 20 18 17 16 15 14 13 12 10 8 9 9 7 8 11 12 10 8 6 7 7 5 4 4 4 4 3 5 4 4 6 8 7 6 7 8 8 7 10 13 10 10 11 9 10 11 9 7 9 9 8 8 8 7 7
17 17 17 17 15 15 17 19 20 19 18 18 16 14 12 12 11 9 9 10 9 10 13 14 12 9 7 8 8 5 5 5 3 3 3 4 4 5 7 8 6 6 7 8 10 9 10 12 11 12 13 11 11 11 8 7 9 8 7 9 9 7 8
18 18 16 15 13 13 14 16 18 19 19 18 16 15 13 12 11 10 9 9 10 12 14 15 13 11 10 10 8 6 6 6 4 5 5 5 6 7 8 6 5 6 6 7 10 10 11 12 12 12 13 12 12 12 10 8 9 8 7 8 8 9 8
21 19 16 14 12 13 13 14 15 16 17 17 15 14 14 12 12 12 10 10 12 14 16 15 12 10 10 11 9 9 8 6 6 7 7 6 6 7 7 5 5 6 6 7 9 11 13 14 12 12 12 12 12 13 12 11 12 11 9 8 9 9 7
25 23 20 16 15 14 13 13 12 12 13 15 15 15 14 12 13 13 12 12 14 16 17 15 11 9 10 10 11 10 9 8 7 7 5 4 4 6 7 5 5 6 5 6 7 10 13 14 14 14 13 13 14 14 14 14 13 13 11 9 8 8 7
27 28 25 22 20 17 14 13 11 10 12 15 16 16 15 14 14 16 16 15 15 17 18 15 11 10 10 10 11 10 9 9 7 6 6 5 6 8 8 6 5 6 4 5 7 9 11 12 14 15 14 14 15 16 16 16 14 15 13 10 10 10 8
27 29 27 26 25 22 18 14 11 9 11 14 15 16 17 17 17 17 19 18 17 18 19 16 12 10 11 11 10 10 11 10 7 7 7 8 10 10 8 7 7 6 4 6 8 8 9 10 10 12 13 14 15 16 17 17 16 16 15 12 12 13 11
28 28 28 27 26 26 23 18 13 11 10 12 13 15 19 20 19 19 20 20 18 19 20 18 13 11 12 12 11 11 13 11 9 9 10 11 12 11 9 8 8 7 6 7 8 7 8 8 7 8 10 10 10 11 14 17 17 17 17 14 13 12 13
28 28 28 28 26 25 25 21 17 14 11 12 13 15 18 20 20 20 21 22 21 21 22 20 15 12 12 13 12 13 14 12 11 11 12 12 11 11 10 9 9 9 7 7 7 7 7 7 6 7 9 8 7 8 10 14 16 17 18 17 14 12 12
27 27 26 27 26 24 24 23 21 19 16 14 14 16 18 20 21 21 22 23 23 23 23 21 18 14 13 14 14 14 15 14 12 12 12 11 9 10 10 9 10 10 7 6 8 8 8 7 7 7 8 7 6 7 8 10 12 14 16 17 17 15 13
26 27 24 24 25 24 23 23 23 23 21 19 16 17 19 21 23 23 23 25 25 25 25 23 20 17 14 15 15 15 15 14 12 12 12 10 9 10 10 8 10 10 6 6 8 9 9 9 8 7 6 6 6 6 6 8 9 10 12 13 14 15 14
27 27 24 22 24 25 24 24 24 24 22 21 21 19 19 21 24 26 25 24 24 25 26 24 22 19 16 15 15 16 16 15 12 12 13 10 9 11 10 8 10 9 5 5 8 9 10 10 10 9 6 4 5 5 5 6 7 8 9 10 10 10 11
26 25 23 23 24 25 24 24 25 25 23 23 25 23 21 21 23 26 26 26 25 25 25 25 24 21 18 16 16 17 17 16 13 14 14 10 9 12 10 8 10 9 6 6 8 9 10 10 10 10 7 4 5 7 5 5 6 6 6 7 7 7 7
25 24 22 23 25 25 24 23 24 25 24 22 25 26 24 22 23 25 27 28 27 26 25 26 25 22 20 18 17 18 19 17 15 14 15 12 10 12 11 8 8 9 8 8 8 9 10 10 11 11 9 9 10 9 5 3 3 2 2 3 3 3 4
24 23 22 23 24 24 23 23 23 22 22 22 22 21 21 23 24 24 26 27 26 26 26 27 26 23 21 20 18 18 19 19 17 15 15 13 11 13 13 9 7 8 8 9 9 9 10 11 11 10 10 11 11 8 4 3 3 3 2 2 2 2 3
24 23 22 21 22 22 22 23 22 20 21 23 21 17 16 19 22 23 23 23 24 25 26 27 27 24 21 21 19 18 19 20 20 19 16 14 12 13 16 14 9 7 8 9 9 9 10 10 10 10 10 11 10 7 6 6 5 5 3 3 2 2 3
23 23 22 21 21 21 21 22 21 19 19 21 21 18 15 15 17 18 18 19 20 21 23 26 27 24 21 19 21 21 19 19 22 22 19 17 15 14 16 18 14 9 8 8 9 10 10 10 9 9 10 10 8 8 9 8 7 7 5 5 5 4 4
Wind_Direction
217 219 207 181 157 30 39 70 91 317 323 343 352 1 73 348 343 34 3 316 291 9 8 346 338 341 338 340 343 339 350 11 359 350 2 7 7 11 10 16 26 14 2 22 25 171 163 154 148 137 129 117 101 96 80 66 64 63 67 62 49 17 324
221 216 194 201 208 169 353 10 154 215 295 329 347 354 30 343 322 45 5 314 294 230 70 356 343 347 339 343 351 345 345 351 347 347 355 0 4 9 12 16 20 14 17 30 28 132 183 161 151 151 144 133 129 125 112 97 92 94 101 100 80 320 332
218 199 198 234 243 198 214 292 309 228 279 321 336 344 351 329 289 178 195 307 307 251 177 357 309 305 323 332 343 343 339 334 339 360 2 358 360 10 17 15 18 21 18 25 32 37 160 160 158 158 144 129 127 125 116 105 104 114 123 124 135 309 342
212 198 205 227 235 214 215 249 292 314 302 319 339 343 337 337 321 236 188 228 277 248 193 312 270 258 304 331 323 329 339 331 334 15 7 352 353 5 14 18 24 23 12 14 29 42 95 144 159 154 138 125 117 111 105 97 93 103 113 104 58 348 352
213 212 212 220 222 225 235 251 268 273 285 306 330 326 325 351 357 292 195 227 267 265 195 266 285 271 264 284 311 344 344 326 338 27 7 339 344 355 7 28 30 18 8 16 23 28 105 164 169 157 139 127 124 116 103 95 93 87 76 66 50 31 8
215 217 221 223 218 222 229 243 260 244 242 271 290 300 314 347 341 318 240 232 278 348 272 270 303 323 297 271 297 355 328 324 358 23 352 333 342 354 5 24 20 12 16 24 26 29 239 229 176 157 146 139 139 125 113 109 106 97 81 76 74 61 7
223 218 222 227 224 228 228 232 243 235 232 248 268 296 305 297 294 302 285 254 267 263 277 284 279 335 323 302 335 346 309 314 13 358 344 347 341 345 10 11 6 17 23 28 27 34 103 227 183 167 159 150 139 123 128 135 121 111 101 96 103 95 340
233 226 221 222 228 235 233 230 233 231 233 240 254 285 299 287 296 307 302 269 232 232 262 292 285 283 303 293 286 346 311 314 21 343 330 8 349 356 12 353 350 16 18 26 26 22 55 222 203 195 187 159 146 141 141 139 125 120 115 108 102 6 331
234 235 230 225 228 235 233 228 231 233 236 241 253 273 279 248 278 307 291 259 243 217 239 297 324 303 277 292 308 349 317 287 12 334 279 121 19 18 15 340 336 9 3 10 25 16 1 282 205 203 201 166 156 155 148 143 134 126 124 121 107 72 31
234 235 236 232 231 235 233 226 227 234 238 242 256 271 261 220 236 209 209 248 253 205 223 248 301 273 267 297 323 299 304 237 70 337 300 128 13 334 355 309 308 358 360 9 27 23 14 3 187 195 197 176 164 164 158 155 147 143 150 148 142 139 119
241 238 235 232 234 237 234 225 223 232 238 240 252 265 262 235 229 196 203 224 236 210 216 216 236 254 254 246 209 255 295 261 100 340 302 311 261 259 299 294 300 349 11 29 26 21 42 45 174 184 193 186 175 176 170 157 154 165 171 171 198 211 200
250 247 238 231 232 237 237 229 225 231 237 237 246 261 267 246 221 206 205 213 218 212 223 238 252 254 247 234 180 147 302 288 113 2 299 304 243 184 64 330 314 321 32 59 18 347 45 199 220 175 187 194 193 195 186 173 172 173 174 187 215 224 118
255 249 240 233 231 233 234 230 226 231 237 236 241 253 264 252 222 212 210 214 219 237 244 258 271 267 261 268 188 160 238 256 133 98 295 304 300 147 109 359 313 292 208 119 105 356 12 307 271 206 193 194 203 204 191 190 183 149 167 209 212 152 157
256 248 240 234 232 231 227 224 225 230 236 237 236 244 252 235 211 207 217 223 230 253 260 267 279 281 247 270 253 206 221 213 163 182 234 267 312 226 158 135 298 285 246 174 155 122 357 303 294 253 202 185 195 199 191 193 181 156 174 205 176 167 180
263 259 250 239 234 233 225 219 224 232 237 238 237 243 250 237 213 205 215 226 233 247 247 245 268 283 238 236 267 279 268 225 187 208 225 223 324 308 201 152 237 273 264 223 165 147 169 255 308 311 235 184 183 188 191 186 177 175 176 171 176 186 164
274 270 261 249 239 236 229 220 222 230 234 236 241 246 244 237 226 207 207 220 230 235 225 233 261 281 265 228 233 270 292 282 222 215 202 150 219 305 276 171 266 283 278 144 141 168 174 170 259 298 268 168 159 168 177 175 176 171 158 169 196 200 147
278 271 266 260 250 241 233 225 225 229 231 232 243 253 243 234 234 214 203 217 228 230 226 239 265 283 278 249 232 237 271 291 262 207 172 186 206 210 198 204 263 311 44 111 92 9 173 156 167 253 265 25 151 158 157 160 152 105 154 174 203 194 161
281 274 270 267 261 253 240 231 232 236 236 234 241 252 246 236 236 224 209 213 223 236 238 238 261 285 293 284 262 246 260 274 262 214 198 207 217 209 197 198 194 145 110 122 136 148 152 139 147 196 210 111 130 142 178 176 120 100 184 179 168 182 187
291 283 278 272 267 263 251 239 239 242 242 239 238 241 244 243 238 224 216 216 216 232 245 235 231 249 277 292 290 261 262 264 217 224 224 198 211 218 196 195 210 189 161 167 181 177 159 143 147 185 193 181 157 162 190 183 103 163 190 166 156 186 204
300 292 288 281 272 271 264 252 250 251 246 242 235 230 234 243 243 216 209 223 219 223 239 237 232 242 259 282 290 273 265 261 232 237 217 186 211 212 191 217 235 222 199 189 190 189 173 159 157 173 171 173 188 186 178 172 167 187 182 163 174 190 197
309 301 296 289 284 287 280 268 267 265 252 241 235 229 229 237 245 222 201 212 220 224 234 236 241 255 256 266 281 279 266 256 247 249 222 211 223 207 214 243 258 246 227 208 198 197 184 174 175 179 167 161 178 184 187 197 201 201 190 184 195 197 199
324 317 306 296 291 292 286 276 273 267 252 239 230 227 228 231 241 237 211 205 213 226 235 239 247 254 248 261 280 278 254 250 243 237 231 221 210 212 238 264 269 248 236 218 210 205 192 187 190 191 186 179 175 175 185 202 196 195 199 200 202 200 205
343 335 326 316 305 293 286 282 276 266 257 250 236 226 228 228 233 239 228 211 213 225 236 245 257 261 258 270 280 261 247 249 220 203 216 219 214 230 256 270 257 245 238 221 215 206 196 194 195 198 200 195 182 176 176 179 181 190 203 203 201 198 202
3 354 341 333 323 305 295 293 286 272 263 260 248 231 225 226 231 235 231 224 222 227 238 251 265 268 267 271 267 253 249 243 223 219 225 231 234 251 266 260 245 247 237 224 220 208 201 202 202 204 207 202 194 187 180 177 179 184 189 193 201 200 201
15 12 1 347 336 327 321 315 302 281 261 253 248 239 229 227 234 234 229 226 228 233 243 255 266 265 265 266 257 252 250 243 236 228 222 224 229 247 267 266 253 255 243 229 225 215 209 210 211 215 217 213 206 196 189 187 184 181 179 179 190 196 200
14 15 14 4 354 347 340 331 316 288 261 249 244 239 233 228 232 236 234 228 227 236 247 259 264 261 260 258 252 244 241 244 241 218 203 206 213 232 259 272 260 261 255 230 227 222 217 217 220 223 226 223 217 207 199 195 190 187 182 168 170 185 195
6 8 11 10 5 1 355 343 326 298 267 256 247 240 240 236 229 232 239 236 228 232 247 259 262 258 254 251 247 235 228 235 232 210 202 205 214 229 249 264 267 267 247 229 234 229 218 218 223 227 229 227 222 216 208 203 199 197 191 176 172 185 193
360 0 2 3 4 5 3 354 338 314 283 269 259 245 243 242 233 229 238 243 235 231 244 257 259 254 250 247 241 230 228 232 225 212 215 219 227 237 240 244 262 268 248 238 245 241 227 221 220 226 234 232 224 220 214 210 209 207 202 195 188 193 200
360 359 357 356 356 359 0 358 350 332 303 280 264 248 245 247 243 236 236 242 241 235 241 253 257 252 248 245 241 232 230 234 229 223 230 237 241 248 244 240 251 263 264 256 248 242 237 232 224 231 245 246 230 225 221 214 215 216 215 213 210 208 208
353 355 357 354 350 351 354 354 351 342 324 301 275 256 251 251 250 246 239 240 243 240 241 248 254 251 245 243 243 237 230 233 234 232 240 246 246 250 250 245 249 259 266 255 243 238 234 230 225 232 250 256 243 234 229 221 219 220 218 219 222 223 220
347 350 357 356 350 349 349 344 341 339 334 322 299 272 259 254 251 248 241 237 240 242 242 245 249 249 245 241 242 240 233 230 229 234 244 248 242 247 253 246 249 264 270 246 241 240 232 226 221 224 243 256 251 238 230 224 221 220 219 221 224 227 228
349 349 351 351 351 351 347 339 332 329 329 330 320 297 274 261 253 247 241 236 238 242 243 245 246 246 244 240 239 239 233 225 220 231 245 251 241 245 254 245 245 262 267 238 237 236 232 229 225 224 230 248 260 253 231 221 219 215 218 221 221 223 225
349 348 344 343 347 349 348 345 339 331 328 329 326 316 298 279 262 253 249 244 239 239 243 246 245 244 244 240 237 237 231 220 214 228 243 249 243 247 254 244 243 254 252 237 236 233 231 229 227 227 214 194 236 251 239 226 226 221 220 221 218 213 212
343 344 342 341 343 344 344 348 348 343 340 335 327 321 315 299 278 263 257 252 243 239 243 245 244 244 247 242 235 235 232 219 208 223 242 245 240 250 258 252 247 251 244 236 235 229 226 226 229 232 218 204 225 244 245 236 234 232 233 227 216 202 188
334 335 336 338 339 337 337 342 344 344 346 345 335 325 323 317 301 282 269 261 253 245 244 244 243 244 247 244 237 234 233 222 206 211 233 237 230 244 259 267 265 254 242 236 234 230 228 228 229 233 228 227 240 251 240 200 157 111 78 76 87 103 124
332 331 329 329 330 332 333 337 340 341 345 347 343 335 332 332 324 306 286 272 260 249 243 242 242 241 240 243 244 240 235 226 212 206 213 220 221 237 256 267 271 259 241 234 233 232 231 231 231 228 226 236 250 246 217 192 156 111 69 60 89 127 118
333 333 330 326 326 330 332 332 335 339 343 345 345 342 338 337 335 327 310 292 274 255 243 241 243 242 240 244 249 247 239 228 219 212 208 208 210 220 243 258 265 264 255 244 238 237 235 233 232 225 222 231 238 228 217 202 169 151 166 182 185 179 151